Location: Cassano d�Adda
(45.5333°N, 9.5167°E)
Time: 02:26:05
(UTC+00:00)

ALOS - Pass Details

Date: 08 December 2019
Orbit: 683 x 685 km, 97.8° (Epoch: 26 January)

Event Time Altitude Azimuth Distance (km) Brightness Sun altitude
Rises 16:06:27 0° 176° (S) 3,036 5.9 -5.1°
Reaches altitude 10° 16:08:43 10° 180° (S) 2,125 5.2 -5.4°
Maximum altitude 16:13:17 58° 259° (W) 802 3.1 -6.2°
Drops below altitude 10° 16:17:55 10° 339° (NNW) 2,143 4.8 -6.9°
Sets 16:20:13 0° 344° (NNW) 3,063 5.5 -7.2°
